GW2194 Weather Reports


Display with metric or nautical units.
time (UTC)temp
F
wind
direction
speed
MPH
gust
MPH
rain 1hr
in
rain 24hr
in
rain mn
in
humidity
%
barometer
mb
20260509231302 66 190 3.0 5.0 0.00 0.00 0.00 49 1011.7
20260509230800 66 199 3.0 7.0 0.00 0.00 0.00 48 1011.9
20260509230256 67 216 3.0 6.0 0.00 0.00 0.00 49 1011.7
20260509225751 68 230 6.0 8.0 0.00 0.00 0.00 47 1011.7
20260509225248 68 241 3.0 4.0 0.00 0.00 0.00 46 1011.4
20260509224744 68 220 2.0 4.0 0.00 0.00 0.00 47 1011.7
20260509224241 68 198 2.0 6.0 0.00 0.00 0.00 45 1011.9
20260509223738 67 39 3.0 7.0 0.00 0.00 0.00 47 1011.7
20260509223235 68 354 4.0 12.0 0.00 0.00 0.00 46 1011.9
20260509222732 68 315 3.0 7.0 0.00 0.00 0.00 47 1012.2
20260509222227 68 272 2.0 5.0 0.00 0.00 0.00 46 1012.2
20260509221723 67 177 3.0 11.0 0.00 0.00 0.00 45 1012.1
20260509221219 68 60 4.0 8.0 0.00 0.00 0.00 47 1012.1
20260509220715 66 304 6.0 6.0 0.00 0.00 0.00 49 1012.2
20260509220212 66 241 7.0 11.0 0.00 0.00 0.00 48 1012.3
20260509215707 66 66 0.0 5.0 0.00 0.00 0.00 48 1012.1
20260509215204 66 231 5.0 7.0 0.00 0.00 0.00 48 1012.3
20260509214701 66 26 4.0 10.0 0.00 0.00 0.00 49 1012.4
20260509214158 66 332 2.0 11.0 0.00 0.00 0.00 46 1012.2
20260509213655 67 232 10.0 14.0 0.00 0.00 0.00 45 1012.1
20260509213151 68 222 7.0 12.0 0.00 0.00 0.00 45 1012.1
20260509212648 67 354 3.0 6.0 0.00 0.00 0.00 45 1012.1
20260509212145 67 198 3.0 8.0 0.00 0.00 0.00 44 1012.0
20260509211641 66 259 2.0 13.0 0.00 0.00 0.00 44 1012.1
20260509211138 69 240 5.0 9.0 0.00 0.00 0.00 45 1011.8
20260509210635 66 221 7.0 10.0 0.00 0.00 0.00 47 1011.9
20260509210132 67 0 1.0 9.0 0.00 0.00 0.00 49 1011.7
20260509205627 69 208 5.0 8.0 0.00 0.00 0.00 44 1011.4
20260509205121 69 249 3.0 5.0 0.00 0.00 0.00 48 1011.7
20260509204617 67 281 3.0 5.0 0.00 0.00 0.00 45 1011.5
20260509204114 67 356 5.0 10.0 0.00 0.00 0.00 48 1011.7
20260509203610 65 286 4.0 6.0 0.00 0.00 0.00 51 1011.5
20260509203103 66 5 5.0 10.0 0.00 0.00 0.00 48 1011.5
20260509202557 66 338 10.0 11.0 0.00 0.00 0.00 49 1011.8
20260509202053 66 130 1.0 6.0 0.00 0.00 0.00 50 1011.8
20260509201548 67 321 4.0 11.0 0.00 0.00 0.00 49 1011.7
20260509201046 67 301 5.0 7.0 0.00 0.00 0.00 49 1011.7
20260509200545 66 341 3.0 4.0 0.00 0.00 0.00 49 1011.5
20260509200042 66 292 3.0 5.0 0.00 0.00 0.00 49 1011.9
20260509195537 65 297 2.0 7.0 0.00 0.00 0.00 51 1011.7
20260509195032 66 337 8.0 10.0 0.00 0.00 0.00 49 1011.7
20260509194527 65 256 0.0 7.0 0.00 0.00 0.00 52 1011.8
20260509194025 65 358 3.0 4.0 0.00 0.00 0.00 50 1011.7
20260509193524 65 10 0.0 5.0 0.00 0.00 0.00 49 1011.9
20260509193022 65 7 5.0 6.0 0.00 0.00 0.00 48 1011.5
20260509192518 66 307 4.0 5.0 0.00 0.00 0.00 50 1011.8
20260509192013 65 327 1.0 5.0 0.00 0.00 0.00 47 1011.7
20260509191508 66 61 3.0 10.0 0.00 0.00 0.00 48 1011.7
20260509191004 66 218 5.0 11.0 0.00 0.00 0.00 47 1011.7
20260509190501 66 7 2.0 5.0 0.00 0.00 0.00 47 1011.4
20260509185959 67 0 4.0 6.0 0.00 0.00 0.00 47 1011.7
20260509185455 67 305 5.0 8.0 0.00 0.00 0.00 43 1011.5
20260509184952 67 182 3.0 5.0 0.00 0.00 0.00 46 1011.4
20260509184451 67 215 3.0 8.0 0.00 0.00 0.00 43 1011.5
20260509183947 67 228 6.0 15.0 0.00 0.00 0.00 46 1011.3
20260509183441 66 203 5.0 7.0 0.00 0.00 0.00 44 1011.5
20260509182938 67 164 1.0 8.0 0.00 0.00 0.00 43 1011.7
20260509182434 67 10 1.0 10.0 0.00 0.00 0.00 42 1011.5
20260509181931 66 29 3.0 7.0 0.00 0.00 0.00 45 1011.3
20260509181430 66 253 9.0 10.0 0.00 0.00 0.00 45 1011.5
20260509180927 66 244 3.0 7.0 0.00 0.00 0.00 48 1011.5
20260509180421 66 215 2.0 9.0 0.00 0.00 0.00 45 1011.7
20260509175918 66 267 2.0 5.0 0.00 0.00 0.00 43 1011.5
20260509175409 67 202 5.0 9.0 0.00 0.00 0.00 45 1011.7
20260509174905 65 201 4.0 7.0 0.00 0.00 0.00 44 1011.7
20260509174401 64 219 4.0 9.0 0.00 0.00 0.00 46 1011.7
20260509173857 65 175 7.0 12.0 0.00 0.00 0.00 46 1011.9
20260509173352 64 195 3.0 7.0 0.00 0.00 0.00 44 1011.9
20260509172848 64 114 3.0 7.0 0.00 0.00 0.00 49 1011.8
20260509172345 64 215 5.0 11.0 0.00 0.00 0.00 45 1012.1
20260509171841 64 234 3.0 7.0 0.00 0.00 0.00 46 1011.9
20260509171337 63 262 0.0 8.0 0.00 0.00 0.00 48 1012.0
20260509170834 63 252 5.0 5.0 0.00 0.00 0.00 50 1012.3
20260509170330 63 241 6.0 8.0 0.00 0.00 0.00 46 1012.3
20260509165824 63 245 5.0 6.0 0.00 0.00 0.00 48 1012.3
20260509165319 63 256 3.0 8.0 0.00 0.00 0.00 47 1012.3
20260509164815 62 228 2.0 8.0 0.00 0.00 0.00 47 1012.5
20260509164312 61 123 1.0 3.0 0.00 0.00 0.00 49 1012.2
20260509163808 61 223 0.0 3.0 0.00 0.00 0.00 49 1012.3
20260509163305 61 204 2.0 5.0 0.00 0.00 0.00 48 1012.5
20260509162804 61 131 2.0 4.0 0.00 0.00 0.00 54 1012.5
20260509162257 61 199 2.0 3.0 0.00 0.00 0.00 50 1012.4
20260509161753 60 202 0.0 3.0 0.00 0.00 0.00 51 1012.5
20260509161249 60 209 0.0 2.0 0.00 0.00 0.00 49 1012.5
20260509160745 61 229 3.0 3.0 0.00 0.00 0.00 51 1012.2
20260509160241 60 336 0.0 5.0 0.00 0.00 0.00 51 1012.3
20260509155737 60 218 1.0 2.0 0.00 0.00 0.00 49 1012.7
20260509155234 61 230 6.0 6.0 0.00 0.00 0.00 59 1012.8
20260509154729 60 212 2.0 4.0 0.00 0.00 0.00 55 1012.7
20260509154227 60 221 4.0 7.0 0.00 0.00 0.00 56 1012.8
20260509153724 59 219 3.0 4.0 0.00 0.00 0.00 58 1012.8
20260509153220 59 48 1.0 2.0 0.00 0.00 0.00 60 1012.9
20260509152716 58 203 1.0 2.0 0.00 0.00 0.00 58 1013.2
20260509152213 59 311 2.0 2.0 0.00 0.00 0.00 58 1013.5
20260509151710 58 81 0.0 1.0 0.00 0.00 0.00 60 1013.3
20260509151207 57 301 0.0 1.0 0.00 0.00 0.00 63 1013.3
20260509150705 57 36 0.0 3.0 0.00 0.00 0.00 65 1013.4
20260509150203 58 255 1.0 3.0 0.00 0.00 0.00 65 1013.4
20260509145659 58 202 3.0 4.0 0.00 0.00 0.00 65 1013.3
20260509145154 58 237 0.0 4.0 0.00 0.00 0.00 64 1013.0
20260509144651 58 321 2.0 4.0 0.00 0.00 0.00 64 1013.2
20260509144148 58 347 2.0 3.0 0.00 0.00 0.00 64 1013.0
20260509143645 57 328 1.0 4.0 0.00 0.00 0.00 69 1013.2
20260509143143 57 338 1.0 3.0 0.00 0.00 0.00 71 1013.2
20260509142638 57 350 3.0 4.0 0.00 0.00 0.00 67 1013.1
20260509142135 57 8 3.0 6.0 0.00 0.00 0.00 66 1013.2
20260509141631 56 142 0.0 2.0 0.00 0.00 0.00 68 1013.1
20260509141127 56 335 3.0 3.0 0.00 0.00 0.00 73 1013.0
20260509140624 54 28 0.0 3.0 0.00 0.00 0.00 71 1013.0
20260509140122 55 235 3.0 3.0 0.00 0.00 0.00 72 1013.3
20260509135619 53 240 0.0 1.0 0.00 0.00 0.00 73 1013.4
20260509135117 54 68 2.0 3.0 0.00 0.00 0.00 73 1013.1
20260509134613 53 101 2.0 2.0 0.00 0.00 0.00 74 1013.3
20260509134111 53 240 2.0 2.0 0.00 0.00 0.00 74 1013.3
20260509133608 52 283 1.0 1.0 0.00 0.00 0.00 76 1013.5
20260509133105 52 186 0.0 3.0 0.00 0.00 0.00 76 1013.7
20260509132603 52 248 0.0 1.0 0.00 0.00 0.00 77 1013.6
20260509132102 52 81 1.0 2.0 0.00 0.00 0.00 77 1013.4
20260509131557 52 52 0.0 2.0 0.00 0.00 0.00 79 1013.4
20260509131054 51 36 0.0 3.0 0.00 0.00 0.00 77 1013.4
20260509130550 52 21 3.0 3.0 0.00 0.00 0.00 77 1013.7
20260509130047 51 310 0.0 1.0 0.00 0.00 0.00 81 1013.4
20260509125543 51 50 1.0 2.0 0.00 0.00 0.00 82 1013.3
20260509125040 50 319 0.0 2.0 0.00 0.00 0.00 82 1013.3
20260509124536 51 233 1.0 3.0 0.00 0.00 0.00 82 1013.5
20260509124034 50 89 0.0 0.0 0.00 0.00 0.00 83 1013.1
20260509123532 50 22 0.0 1.0 0.00 0.00 0.00 83 1013.2
20260509123027 50 357 3.0 3.0 0.00 0.00 0.00 83 1013.4
20260509122523 50 17 2.0 3.0 0.00 0.00 0.00 83 1013.3
20260509122020 51 78 1.0 2.0 0.00 0.00 0.00 83 1013.2
20260509121512 50 60 0.0 1.0 0.00 0.00 0.00 80 1013.3
20260509121010 50 219 0.0 0.0 0.00 0.00 0.00 80 1013.4
20260509120508 50 22 0.0 1.0 0.00 0.00 0.00 79 1013.4
20260509120006 50 31 2.0 2.0 0.00 0.00 0.00 79 1013.3
20260509115503 50 55 1.0 2.0 0.00 0.00 0.00 80 1013.4
20260509115000 50 32 0.0 0.0 0.00 0.00 0.00 80 1013.5
20260509114458 50 44 0.0 1.0 0.00 0.00 0.00 80 1013.6
20260509113957 50 29 0.0 1.0 0.00 0.00 0.00 81 1013.7
20260509113454 49 73 1.0 3.0 0.00 0.00 0.00 82 1013.5
20260509112951 49 92 2.0 2.0 0.00 0.00 0.00 86 1013.7
20260509112448 49 34 0.0 0.0 0.00 0.00 0.00 87 1013.9
20260509111944 49 55 0.0 0.0 0.00 0.00 0.00 88 1013.5
20260509111442 48 89 0.0 0.0 0.00 0.00 0.00 88 1013.6
20260509110940 48 32 0.0 0.0 0.00 0.00 0.00 87 1013.4
20260509110435 48 47 0.0 0.0 0.00 0.00 0.00 88 1013.6
20260509105934 48 180 0.0 1.0 0.00 0.00 0.00 88 1013.6
20260509105432 48 180 1.0 2.0 0.00 0.00 0.00 88 1013.7
20260509104929 48 210 0.0 0.0 0.00 0.00 0.00 87 1013.4
20260509104426 48 29 0.0 2.0 0.00 0.00 0.00 87 1013.6
20260509103923 48 13 1.0 2.0 0.00 0.00 0.00 87 1013.4
20260509103420 48 233 0.0 1.0 0.00 0.00 0.00 87 1013.4
20260509102918 48 36 0.0 2.0 0.00 0.00 0.00 87 1013.5
20260509102416 48 1 1.0 1.0 0.00 0.00 0.00 87 1013.4
20260509101911 48 76 0.0 1.0 0.00 0.00 0.00 87 1013.5
20260509101408 48 188 2.0 2.0 0.00 0.00 0.00 87 1013.6
20260509100905 48 32 0.0 2.0 0.00 0.00 0.00 86 1013.9
20260509100402 48 157 0.0 2.0 0.00 0.00 0.00 86 1013.5
20260509095859 48 319 0.0 3.0 0.00 0.00 0.00 85 1013.6
20260509095356 48 339 1.0 2.0 0.00 0.00 0.00 84 1013.3
20260509094853 49 334 2.0 2.0 0.00 0.00 0.00 84 1013.6
20260509094350 49 273 3.0 3.0 0.00 0.00 0.00 82 1013.2
20260509093848 49 94 4.0 9.0 0.00 0.00 0.00 85 1013.4
20260509093344 48 2 5.0 5.0 0.00 0.00 0.00 87 1013.3
20260509092843 48 83 2.0 3.0 0.00 0.00 0.00 86 1013.5
20260509092340 49 218 2.0 3.0 0.00 0.00 0.00 86 1013.3
20260509091838 49 133 1.0 2.0 0.00 0.00 0.00 85 1013.5
20260509091335 49 76 2.0 2.0 0.00 0.00 0.00 85 1013.6
20260509090832 49 296 2.0 3.0 0.00 0.00 0.00 85 1013.6
20260509090329 49 227 2.0 3.0 0.00 0.00 0.00 86 1013.4
20260509085826 49 114 0.0 3.0 0.00 0.00 0.00 86 1013.5
20260509085324 49 184 2.0 2.0 0.00 0.00 0.00 86 1013.5
20260509084820 49 234 2.0 3.0 0.00 0.00 0.00 85 1013.5
20260509084317 49 214 0.0 2.0 0.00 0.00 0.00 85 1013.6
20260509083815 49 11 2.0 3.0 0.00 0.00 0.00 85 1013.3
20260509083312 49 16 1.0 2.0 0.00 0.00 0.00 85 1013.3
20260509082808 49 19 2.0 3.0 0.00 0.00 0.00 85 1013.4
20260509082307 49 326 0.0 1.0 0.00 0.00 0.00 85 1013.5
20260509081802 49 113 0.0 0.0 0.00 0.00 0.00 84 1013.2
20260509081259 49 126 0.0 1.0 0.00 0.00 0.00 84 1013.5
20260509080758 49 101 0.0 0.0 0.00 0.00 0.00 84 1013.5
20260509080254 49 119 0.0 0.0 0.00 0.00 0.00 83 1013.4
20260509075753 49 119 0.0 0.0 0.00 0.00 0.00 84 1013.2
20260509075250 49 347 0.0 2.0 0.00 0.00 0.00 83 1013.2
20260509074747 49 31 1.0 2.0 0.00 0.00 0.00 84 1013.4
20260509074245 49 22 1.0 2.0 0.00 0.00 0.00 85 1013.3
20260509073740 49 52 0.0 0.0 0.00 0.00 0.00 85 1013.2
20260509073237 49 32 0.0 1.0 0.00 0.00 0.00 85 1013.2
20260509072734 49 202 0.0 1.0 0.00 0.00 0.00 85 1013.2
20260509072230 49 209 0.0 0.0 0.00 0.00 0.00 85 1013.3
20260509071727 49 76 0.0 1.0 0.00 0.00 0.00 84 1013.2
20260509071225 49 32 1.0 1.0 0.00 0.00 0.00 83 1013.1
20260509070721 49 32 0.0 1.0 0.00 0.00 0.00 83 1013.0
20260509070218 49 299 0.0 0.0 0.00 0.00 0.00 83 1013.4
20260509065714 49 81 2.0 2.0 0.00 0.00 0.00 83 1013.3
20260509065210 49 145 0.0 1.0 0.00 0.00 0.00 83 1013.4
20260509064707 49 147 0.0 1.0 0.00 0.00 0.00 84 1013.2
20260509064205 50 32 0.0 0.0 0.00 0.00 0.00 83 1013.3
20260509063702 50 181 0.0 0.0 0.00 0.00 0.00 83 1013.2
20260509063158 49 221 0.0 1.0 0.00 0.00 0.00 83 1013.7
20260509062655 49 119 0.0 1.0 0.00 0.00 0.00 83 1013.4
20260509062152 49 55 0.0 0.0 0.00 0.00 0.00 82 1013.3
20260509061649 49 41 1.0 1.0 0.00 0.00 0.00 81 1013.3
20260509061146 50 96 0.0 1.0 0.00 0.00 0.00 81 1013.4
20260509060644 50 44 0.0 0.0 0.00 0.00 0.00 81 1013.4
20260509060140 50 142 0.0 1.0 0.00 0.00 0.00 81 1013.5
20260509055636 50 49 0.0 1.0 0.00 0.00 0.00 82 1013.6
20260509055132 50 141 0.0 0.0 0.00 0.00 0.00 81 1013.7
20260509054629 50 201 0.0 1.0 0.00 0.00 0.00 83 1013.7
20260509054126 50 32 0.0 0.0 0.00 0.00 0.00 82 1013.7
20260509053625 50 135 0.0 0.0 0.00 0.00 0.00 82 1013.9
20260509053121 50 199 0.0 1.0 0.00 0.00 0.00 83 1013.9
20260509052619 50 147 0.0 0.0 0.00 0.00 0.00 83 1013.7
20260509052116 50 89 0.0 0.0 0.00 0.00 0.00 82 1014.0
20260509051614 50 98 0.0 1.0 0.00 0.00 0.00 80 1014.2
20260509051111 50 147 0.0 0.0 0.00 0.00 0.00 80 1014.0
20260509050609 50 103 0.0 0.0 0.00 0.00 0.00 81 1014.2
20260509050104 50 174 0.0 0.0 0.00 0.00 0.00 80 1014.1
20260509045603 50 89 0.0 1.0 0.00 0.00 0.00 80 1014.3
20260509045058 50 233 0.0 0.0 0.00 0.00 0.00 80 1014.5
20260509044556 50 185 0.0 1.0 0.00 0.00 0.00 80 1014.4
20260509044053 50 124 0.0 1.0 0.00 0.00 0.00 79 1014.2
20260509043550 50 79 2.0 3.0 0.00 0.00 0.00 80 1014.3
20260509043045 50 242 1.0 4.0 0.00 0.00 0.00 79 1014.2
20260509042542 50 63 3.0 4.0 0.00 0.00 0.00 79 1014.1
20260509042038 50 131 0.0 0.0 0.00 0.00 0.00 79 1014.2
20260509041535 50 89 0.0 0.0 0.00 0.00 0.00 79 1014.4
20260509041033 50 212 0.0 1.0 0.00 0.00 0.00 78 1014.5
20260509040531 50 218 0.0 0.0 0.00 0.00 0.00 79 1014.3
20260509040027 51 157 0.0 0.0 0.00 0.00 0.00 78 1014.4
20260509035524 51 135 0.0 0.0 0.00 0.00 0.00 77 1014.4
20260509035021 51 119 0.0 1.0 0.00 0.00 0.00 78 1014.4
20260509034519 51 48 1.0 2.0 0.00 0.00 0.00 79 1014.3
20260509034016 51 18 1.0 2.0 0.00 0.00 0.00 79 1014.5
20260509033513 51 42 1.0 2.0 0.00 0.00 0.00 78 1014.5
20260509033010 51 249 0.0 0.0 0.00 0.00 0.00 77 1014.4
20260509032507 51 195 1.0 1.0 0.00 0.00 0.00 78 1014.4
20260509032004 51 173 0.0 2.0 0.00 0.00 0.00 76 1014.3
20260509031501 51 89 0.0 1.0 0.00 0.00 0.00 76 1014.5
20260509030958 51 89 0.0 1.0 0.00 0.00 0.00 76 1014.5
20260509030456 51 18 1.0 2.0 0.00 0.00 0.00 77 1014.5
20260509025953 51 144 0.0 0.0 0.00 0.00 0.00 77 1014.3
20260509025449 51 185 0.0 1.0 0.00 0.00 0.00 77 1014.4
20260509024944 52 216 1.0 2.0 0.00 0.00 0.00 74 1014.5
20260509024441 52 186 0.0 2.0 0.00 0.00 0.00 74 1014.4
20260509023938 52 283 0.0 0.0 0.00 0.00 0.00 74 1014.4
20260509023435 53 39 1.0 2.0 0.00 0.00 0.00 72 1014.4
20260509022932 53 39 0.0 1.0 0.00 0.00 0.00 72 1014.3
20260509022429 53 58 0.0 2.0 0.00 0.00 0.00 72 1014.1
20260509021926 53 69 2.0 2.0 0.00 0.00 0.00 71 1014.3
20260509021423 53 50 1.0 1.0 0.00 0.00 0.00 72 1014.3
20260509020920 53 316 0.0 1.0 0.00 0.00 0.00 73 1014.3
20260509020419 53 80 0.0 2.0 0.00 0.00 0.00 72 1014.4
20260509015915 53 86 2.0 3.0 0.00 0.00 0.00 69 1014.5
20260509015414 53 89 0.0 2.0 0.00 0.00 0.00 70 1014.4
20260509014910 53 113 0.0 0.0 0.00 0.00 0.00 70 1014.4
20260509014407 53 32 0.0 0.0 0.00 0.00 0.00 71 1014.3
20260509013903 53 303 0.0 2.0 0.00 0.00 0.00 69 1014.5
20260509013400 53 174 0.0 0.0 0.00 0.00 0.00 70 1014.4
20260509012856 53 246 1.0 1.0 0.00 0.00 0.00 69 1014.4
20260509012353 54 204 1.0 1.0 0.00 0.00 0.00 69 1014.4
20260509011850 54 51 1.0 2.0 0.00 0.00 0.00 66 1014.3
20260509011347 53 44 0.0 0.0 0.00 0.00 0.00 67 1014.3
20260509010845 54 58 0.0 0.0 0.00 0.00 0.00 66 1013.9
20260509010342 54 350 1.0 3.0 0.00 0.00 0.00 65 1013.6
20260509005839 54 73 0.0 1.0 0.00 0.00 0.00 66 1013.6
20260509005337 54 50 0.0 1.0 0.00 0.00 0.00 63 1013.5
20260509004832 54 109 1.0 2.0 0.00 0.00 0.00 64 1013.5
20260509004328 55 296 1.0 3.0 0.00 0.00 0.00 63 1013.7
20260509003826 56 124 0.0 2.0 0.00 0.00 0.00 61 1014.0
20260509003324 56 55 0.0 1.0 0.00 0.00 0.00 56 1014.0
20260509002821 56 228 0.0 0.0 0.00 0.00 0.00 57 1013.9
20260509002318 57 230 0.0 1.0 0.00 0.00 0.00 56 1014.2
20260509001816 58 213 1.0 1.0 0.00 0.00 0.00 55 1013.9
20260509001311 59 221 1.0 2.0 0.00 0.00 0.00 52 1014.0
20260509000809 60 122 3.0 4.0 0.00 0.00 0.00 45 1013.9
20260509000306 60 32 0.0 1.0 0.00 0.00 0.00 43 1014.1
20260508235757 61 124 3.0 3.0 0.00 0.00 0.00 39 1014.1
20260508235254 62 89 0.0 1.0 0.00 0.00 0.00 38 1014.1
20260508234751 63 125 2.0 2.0 0.00 0.00 0.00 37 1013.7
20260508234247 62 150 0.0 4.0 0.00 0.00 0.00 38 1013.4
20260508233747 63 246 0.0 3.0 0.00 0.00 0.00 40 1013.6
20260508233245 63 334 1.0 4.0 0.00 0.00 0.00 34 1013.7
20260508232742 64 77 1.0 3.0 0.00 0.00 0.00 37 1013.6
20260508232238 64 23 3.0 5.0 0.00 0.00 0.00 37 1013.7
20260508231736 64 0 4.0 4.0 0.00 0.00 0.00 35 1013.9